Flag for Spain Weather past 2 weeks in Almería, Spain

Now
75 °F

Mild.


Feels Like: 77 °F
Forecast: 67 / 89 °F
Wind: 5 mph from Northwest

Location: Almeria / Aeropuerto

Current Time: Jul 23, 2014 at 8:24:50 AM

Latest Report: Jul 23, 2014 at 6:00 AM


Visibility: N/A

Pressure: 29.88 "Hg

Humidity: 42%

Dew point: 50 °F

Location of AlmeríaLocation

Historic Weather in Almería — Graph

°F

Almería temperature yesterday

Maximum temperature yesterday: 85 °F (at 12:00 PM)
Minimum temperature yesterday: 73 °F (at 7:00 AM)
Average temperature yesterday: 79 °F

Past Weeks' High & Low Weather Summary

 TemperatureHumidityPressure
High100 °F (Jul 16, 3:00 PM)87% (Jul 19, 6:00 AM)30.06 "Hg (Jul 19, 6:00 AM)
Low70 °F (Jul 21, 4:00 AM)20% (Jul 21, 11:00 AM)29.78 "Hg (Jul 19, 7:00 PM)
Average80 °F62%29.98 "Hg
* Reported Jul 8 6:00 AM — Jul 23 6:00 AM, Almería, Weather by CustomWeather, © 2014

Note: Actual official high and low records may vary slightly from our data, if they occured in-between our weather recording intervals... More about our weather records

Advertising

Almería weather history for previous 24 hours

 ConditionsComfort  
Time TempWeatherWind HumidityBarometerVisibility
6:00 AM
Jul 23
75 °FMild.5 mph42%29.88 "HgN/A
5:00 AM74 °FPassing clouds.1 mph49%29.89 "Hg31 mi
4:00 AM74 °FMild.3 mph47%29.91 "HgN/A
3:00 AM75 °FMild.No wind38%29.90 "HgN/A
2:00 AM76 °FMild.2 mph36%29.91 "HgN/A
1:00 AM77 °FMild.2 mph50%29.92 "HgN/A
6:00 PM
Jul 22
83 °FWarm.6 mph67%29.93 "HgN/A
5:00 PM83 °FSunny.7 mph66%29.94 "Hg25 mi
4:00 PM84 °FWarm.7 mph59%29.96 "HgN/A
3:00 PM83 °FWarm.8 mph63%29.98 "HgN/A
2:00 PM83 °FSunny.7 mph56%29.99 "Hg25 mi
1:00 PM82 °FWarm.9 mph65%30.00 "HgN/A
12:00 PM85 °FWarm.8 mph50%30.01 "HgN/A
11:00 AM84 °FSunny.5 mph46%30.01 "Hg25 mi
10:00 AM83 °FWarm.3 mph44%30.02 "HgN/A
9:00 AM80 °FWarm.2 mph43%30.02 "HgN/A
8:00 AM75 °FSunny.6 mph58%30.01 "Hg22 mi
Weather by CustomWeather, © 2014

See weather overviewHow to use our weather pages